Location: Canyam�s
(41.5996°N, 2.4450°E)
Time: 15:27:58
(UTC+00:00)

Meteor 1-22 Rocket - Pass Details

Date: 06 June 2020
Orbit: 787 x 941 km, 81.2° (Epoch: 09 July)

Event Time Altitude Azimuth Distance (km) Brightness Sun altitude
Rises 21:18:41 0° 347° (NNW) 3,506 8.7 -16.8°
Reaches altitude 10° 21:21:11 10° 346° (NNW) 2,540 7.8 -17.1°
Maximum altitude 21:26:54 69° 264° (W) 908 4.4 -17.7°
Enters shadow 21:30:26 23° 186° (S) 1,713 5.4 -18.1°
